Weather in Columbia

United States     34°00′02″N   81°02′06″W
temp.,
°C
wind,
m/s
gust,
m/s
humid.,
%
clouds,
%
prec.,
mm/h
press.,
hPa
HPBL,
m
28 may, sat
sat2823:00+24sw3952100 0.0 1011310
02:00+22w36616 0.0 1010279
05:00+20nw25700 0.0 1011167
08:00+21nw23640 0.0 1012219
11:00+27w23430 0.0 10131313
14:00+31wsw34340 0.0 10112290
17:00+30sw34322 0.0 10112294
20:00+27wsw11450 0.0 101233
29 may, sun
sun2923:00+23n12580 0.0 101356
02:00+21e11654 0.0 101415
05:00+20ene23750 0.0 101462
08:00+23e23657 0.0 1016193
11:00+29ese224450 0.0 10171189
14:00+32s223245 0.0 10162547
17:00+31se533615 0.0 10151695
20:00+27se36514 0.0 1016327
30 may, mon
mon3023:00+24sse38630 0.0 1018270
02:00+22sse25710 0.0 1019160
05:00+20e11770 0.0 101937
08:00+23ese12700 0.0 1020227
11:00+29e23441 0.0 10201262
14:00+32ese4333100 0.0 10192519
17:00+33ese3331100 0.0 10182669
20:00+29se2447100 0.0 1018191
31 may, tue
tue3123:00+25sse3963100 0.0 1020367
02:00+22s247810 0.0 1020135
05:00+21ese11877 0.0 101951
08:00+23nne11785 0.0 1021240
11:00+30ese12470 0.0 10211184
14:00+34se223327 0.0 10192475
17:00+32sse333784 0.0 10171789
20:00+29se224631 0.0 101784
1 june, wed
wed123:00+25sse38680 0.0 1019287
02:00+23ssw37770 0.0 1019246
05:00+22sw24850 0.0 1018127
08:00+24wsw23740 0.0 1019278
11:00+31w12470 0.0 10181201
14:00+35s223048 0.0 10153239
17:00+32ne123799 0.1 1013338
20:00+27s135787 0.6 101482